GFSNE_700_temp_276.txt.gz
Temp
7 8 8 8 7 8 8 8 8 8 9 9 8 8 7 7 7 7 7 6 6 6 6 6 6 6 6 6 6 6 5 5 4 3 2 2 2 0
7 7 7 8 8 7 8 8 8 8 8 9 9 8 7 7 7 7 6 6 6 6 6 6 6 6 6 6 6 5 5 6 4 3 2 2 1 1
6 7 7 7 7 7 7 7 8 7 7 9 9 8 8 7 7 7 7 6 6 6 6 6 6 7 6 5 5 5 5 5 4 3 3 3 2 2
6 6 7 7 7 7 7 7 7 7 7 8 8 8 8 8 8 7 7 7 7 6 6 6 7 7 7 6 6 6 6 5 5 4 3 4 3 2
6 5 6 6 6 7 7 7 7 7 7 7 8 8 8 8 8 8 8 7 7 7 6 6 7 7 7 7 6 6 6 6 5 4 4 4 3 2
6 5 5 6 6 7 7 7 7 7 7 7 7 7 8 8 8 8 8 8 8 7 6 6 7 8 7 7 6 6 6 5 4 4 4 3 3 2
4 5 6 5 5 6 7 7 7 6 7 7 7 8 8 8 9 8 8 8 8 7 7 7 7 7 8 7 7 7 6 5 4 3 3 3 3 3
2 3 5 7 5 5 6 6 7 7 6 7 7 8 9 8 8 8 8 8 8 8 8 7 7 8 8 8 7 7 6 6 4 4 4 4 3 3
4 5 5 4 4 5 5 5 6 7 7 6 7 8 9 9 8 8 8 8 8 8 8 8 8 8 8 8 8 7 6 6 5 4 4 4 3 3
5 5 6 6 4 5 6 6 6 6 7 7 7 8 9 9 8 8 7 7 8 8 8 8 8 8 8 8 8 8 7 6 5 5 4 4 4 3
5 4 5 5 6 4 4 5 5 6 6 6 7 7 8 8 8 7 7 7 8 8 8 8 8 8 8 8 8 8 7 6 6 5 4 4 3 3
4 3 3 3 3 4 3 5 4 6 6 5 6 6 7 7 8 7 7 7 7 8 8 8 7 7 8 8 8 7 8 7 6 5 5 4 3 3
3 3 3 4 3 3 3 3 3 3 5 6 5 6 5 5 6 7 7 7 6 7 7 7 8 8 8 8 8 8 8 7 6 6 6 4 3 4
2 3 3 4 4 3 3 3 3 4 4 4 5 6 6 5 6 6 6 7 6 7 7 7 7 7 5 6 6 8 7 7 7 7 5 4 3 3
1 2 2 3 3 4 3 4 3 2 3 3 2 3 5 5 6 5 6 5 6 7 6 7 5 5 4 5 5 5 4 5 5 5 3 4 2 2
-1 1 1 2 2 2 2 3 3 3 2 2 2 1 4 5 5 5 6 4 5 5 5 4 5 4 4 5 5 4 5 4 5 3 2 2 2 2
-3 -3 -1 -0 0 1 1 2 3 3 1 1 3 1 1 2 3 2 4 4 5 3 4 4 4 4 4 4 4 4 4 4 2 2 2 2 1 2
-4 -3 -3 -3 -2 -1 1 1 3 1 2 2 2 1 1 2 2 1 2 4 4 3 4 2 2 3 3 3 4 4 3 3 3 2 2 2 2 2
-5 -5 -4 -4 -3 -2 -1 -0 1 1 1 2 4 2 2 2 1 2 2 3 5 4 2 2 3 2 2 3 3 3 2 2 2 1 1 1 1 1
-5 -5 -5 -5 -5 -4 -2 -1 0 0 -0 1 1 2 2 3 3 3 4 3 2 1 2 2 3 2 2 2 3 3 3 2 1 2 1 1 0 0
-5 -5 -5 -5 -5 -5 -5 -3 -2 -1 0 1 1 1 1 2 2 3 2 2 2 2 2 2 2 1 2 1 2 3 1 1 1 1 1 1 1 -0
-6 -6 -5 -5 -5 -5 -5 -5 -4 -3 -2 -1 -0 -0 0 1 1 2 2 2 2 2 2 2 2 2 2 1 1 2 2 2 1 2 1 1 -1 -1
-7 -6 -6 -5 -5 -5 -5 -5 -4 -4 -4 -3 -3 -2 -1 -0 -0 -0 1 1 1 1 2 1 2 1 1 1 2 1 1 1 1 -0 -1 0 -1 -2

GFSNE_700_temp_279.txt.gz
Temp
7 7 7 7 7 7 8 7 7 8 8 8 8 8 7 7 7 7 7 6 6 6 7 6 6 6 6 6 6 6 6 5 5 5 5 4 3 2
6 7 7 7 7 7 7 7 7 7 8 8 8 8 8 7 7 7 7 6 6 6 6 6 6 6 6 7 6 6 6 6 5 5 5 4 4 4
5 5 6 7 7 7 7 7 7 7 7 9 8 7 8 8 8 7 7 7 7 6 6 6 6 6 6 7 7 6 6 6 6 6 5 5 5 4
4 5 5 5 6 6 7 7 7 7 6 8 7 7 8 8 8 8 8 7 7 7 6 6 6 6 7 7 7 6 6 6 6 6 6 5 5 5
4 3 4 5 5 5 5 5 6 6 6 7 8 7 7 7 7 8 8 7 7 7 7 7 6 6 7 7 7 7 6 6 6 6 6 6 4 5
1 3 2 4 4 4 4 4 4 5 4 5 7 7 7 7 7 8 8 8 8 7 7 7 6 6 7 7 7 7 7 7 6 6 6 5 4 4
3 4 4 2 3 4 4 4 4 5 5 5 5 6 6 7 7 7 8 8 8 8 7 7 7 7 7 7 8 8 7 7 7 6 6 5 4 4
4 4 4 4 4 3 2 4 4 4 4 5 5 5 5 7 7 7 7 7 8 8 8 8 7 7 7 8 9 8 8 8 7 7 7 6 3 4
3 3 4 4 4 5 4 2 2 2 3 4 5 5 5 7 7 7 7 7 7 7 7 8 8 8 8 8 8 8 8 8 8 7 7 7 5 4
2 3 3 4 4 4 3 2 4 3 4 4 4 4 5 5 6 7 6 6 6 7 8 8 9 9 8 8 8 8 8 8 8 7 7 7 6 4
2 2 3 3 3 4 4 4 4 5 6 6 6 5 5 5 5 6 6 6 6 7 7 8 8 9 8 8 8 8 8 8 8 7 7 6 5 4
-0 1 1 2 3 3 4 5 5 5 6 5 6 6 6 5 5 5 5 6 5 6 7 8 8 8 8 8 8 8 8 7 8 7 6 6 5 4
-1 -1 0 1 1 2 2 4 5 4 4 3 4 5 6 5 5 4 4 6 6 6 7 7 8 7 7 7 8 8 7 7 7 7 7 6 4 4
-2 -2 -1 -0 0 1 1 2 2 3 3 3 4 5 5 6 6 6 5 3 5 5 6 6 6 6 6 7 7 7 8 7 7 6 6 6 5 3
-5 -3 -2 -1 -1 -0 0 1 1 2 2 3 5 4 5 4 3 4 4 4 4 5 5 5 5 5 6 6 6 6 7 7 6 5 5 5 4 3
-5 -5 -5 -4 -2 -1 -0 1 1 2 2 3 4 4 4 4 3 3 2 3 3 4 4 4 5 5 5 5 6 5 6 4 4 5 5 4 4 3
-6 -6 -5 -4 -4 -3 -2 -0 0 0 1 2 3 4 5 3 2 2 2 2 2 2 3 4 5 4 4 4 4 4 4 5 4 3 4 4 3 3
-6 -5 -6 -7 -4 -3 -3 -2 -1 -0 1 1 1 2 3 4 3 2 2 1 1 2 1 1 3 3 2 2 4 4 2 3 2 3 3 4 3 3
-6 -6 -6 -5 -5 -7 -5 -3 -2 -2 -1 0 0 0 0 1 2 2 1 2 3 3 1 1 1 2 3 1 2 2 3 2 2 2 2 3 3 3
-6 -6 -6 -6 -6 -5 -5 -6 -5 -4 -3 -2 -1 -1 0 -1 -0 2 1 1 1 2 1 1 2 1 2 1 1 2 2 1 1 2 2 2 2 2
-7 -7 -7 -6 -6 -6 -6 -5 -5 -6 -4 -4 -3 -2 -1 -1 -1 1 1 1 1 1 1 1 1 1 1 1 2 2 2 2 1 2 2 2 2 2
-8 -8 -7 -7 -7 -6 -6 -6 -5 -5 -5 -6 -5 -5 -3 -2 -1 -0 -0 1 1 1 1 2 1 2 2 1 2 2 2 2 1 2 1 1 2 2
-9 -9 -8 -7 -7 -7 -7 -7 -6 -6 -5 -5 -5 -6 -6 -5 -3 -2 -2 -1 0 0 0 1 1 1 1 1 1 2 1 1 1 1 1 1 1 1

GFSNE_700_temp_285.txt.gz
Temp
4 4 4 5 5 4 4 5 5 5 5 7 6 7 8 8 7 7 7 7 7 7 7 7 7 7 7 7 7 7 7 7 7 6 6 6 6 6
2 3 4 4 4 4 4 4 5 5 5 6 6 5 5 8 8 8 7 7 7 7 7 7 7 7 7 7 7 7 7 7 7 7 6 6 6 6
2 2 3 4 4 4 4 5 5 5 5 7 6 6 5 5 7 8 8 7 7 7 7 7 7 7 7 7 7 7 7 7 7 7 7 7 6 6
2 1 2 3 3 4 3 5 4 4 4 5 6 6 6 6 5 6 7 8 8 7 7 7 7 6 7 7 7 7 7 7 7 7 7 7 7 6
2 2 1 1 4 3 2 3 4 4 3 4 5 5 6 6 5 5 6 6 7 7 7 7 7 6 6 7 7 7 7 7 7 7 7 7 7 6
2 3 2 1 1 1 2 2 4 4 2 4 3 3 3 4 4 4 4 5 6 7 7 7 7 7 7 7 7 7 7 7 7 7 7 7 7 7
2 2 2 2 2 2 3 3 2 3 1 1 0 0 3 4 3 4 4 4 5 6 7 8 8 7 7 7 7 7 7 7 7 7 7 7 7 7
1 1 1 1 1 1 2 2 2 2 3 2 2 2 2 1 2 3 3 3 3 5 5 6 6 6 7 7 7 7 7 7 7 7 7 7 7 7
-1 0 0 0 1 1 2 1 2 2 2 2 2 3 3 3 0 1 1 1 2 3 3 4 5 6 6 7 7 7 7 8 8 7 7 7 7 7
-4 -2 -1 -0 -0 0 1 1 1 1 2 2 3 2 2 3 1 2 2 3 2 3 4 5 6 7 7 7 7 7 7 8 8 8 8 7 7 7
-5 -5 -4 -2 -1 -1 0 1 1 1 1 1 1 2 2 3 2 1 3 2 5 6 6 5 7 6 6 7 7 7 7 7 8 8 8 7 8 7
-5 -5 -5 -5 -4 -3 -2 -1 0 1 1 1 0 2 2 2 2 3 3 3 5 5 6 6 7 6 7 7 8 8 8 7 7 7 7 7 7 8
-5 -5 -5 -5 -6 -5 -5 -4 -2 -1 -0 0 1 -0 2 1 1 1 3 3 4 5 5 4 7 7 6 6 7 7 7 6 6 7 7 7 6 7
-6 -6 -6 -5 -5 -5 -5 -5 -5 -4 -3 -2 -1 -0 -0 0 1 2 2 2 3 3 2 2 5 5 6 6 6 7 6 6 5 6 7 7 7 6
-7 -7 -6 -6 -6 -6 -6 -5 -5 -5 -4 -3 -3 -2 -1 -1 0 -0 0 0 2 3 3 2 3 3 5 7 6 7 7 6 5 6 5 5 6 5
-7 -7 -7 -7 -6 -6 -6 -6 -6 -6 -5 -4 -4 -3 -2 -2 -1 0 -0 -0 0 2 2 2 2 2 3 4 5 7 7 6 5 5 5 5 5 4
-8 -8 -7 -7 -7 -7 -6 -6 -6 -6 -6 -6 -5 -4 -3 -2 -2 -2 -1 -0 0 2 2 2 2 2 2 3 3 6 3 3 4 4 3 3 3 4
-9 -8 -8 -7 -7 -7 -7 -6 -7 -7 -6 -6 -6 -6 -5 -4 -4 -3 -1 -1 -1 -1 0 0 1 1 1 2 2 3 3 3 3 2 2 2 3 3
-10 -9 -9 -9 -8 -8 -8 -7 -7 -7 -6 -6 -6 -6 -6 -5 -5 -4 -3 -2 -1 -1 0 0 0 1 2 2 2 1 1 2 1 1 1 1 2 2
-11 -11 -10 -10 -10 -9 -8 -8 -8 -7 -7 -7 -7 -6 -6 -6 -6 -5 -5 -3 -2 -2 -1 -2 0 0 0 1 1 1 2 1 1 1 1 1 1 1
-12 -12 -12 -11 -10 -10 -9 -9 -9 -9 -8 -7 -7 -7 -7 -7 -6 -6 -6 -6 -5 -4 -2 -2 -2 -0 -0 0 1 1 1 1 1 1 1 1 2 1
-12 -12 -12 -12 -11 -11 -10 -10 -9 -9 -9 -8 -8 -8 -7 -7 -7 -7 -6 -6 -8 -7 -5 -4 -1 -1 -1 -1 -0 0 0 0 -0 1 1 1 2 2
-13 -13 -12 -12 -12 -11 -11 -10 -10 -10 -10 -9 -9 -8 -8 -8 -7 -7 -7 -7 -6 -6 -6 -5 -4 -4 -3 -2 -1 0 -1 -1 -0 0 -0 0 1 1

GFSNE_700_temp_291.txt.gz
Temp
2 2 2 2 2 2 2 1 2 3 3 4 5 5 5 6 6 6 7 7 7 6 6 6 6 6 6 6 7 6 6 6 6 6 6 6 6 6
0 1 1 1 1 2 2 3 2 1 1 2 4 5 5 5 5 5 6 6 6 6 6 6 6 6 6 6 6 6 6 6 6 6 6 6 6 6
0 0 0 0 1 1 1 1 2 1 1 2 2 4 4 4 4 4 5 5 5 6 7 6 5 5 5 5 5 6 6 6 6 6 6 7 6 6
-1 -0 -0 0 0 0 1 1 1 2 1 2 1 2 3 4 3 4 3 4 5 6 6 6 6 6 5 5 5 5 5 6 6 6 6 6 6 7
-2 -1 -1 -0 -0 -0 -0 1 0 1 2 1 2 2 2 3 3 3 3 3 3 4 5 5 6 7 6 5 5 5 6 6 6 6 6 6 6 6
-4 -3 -2 -2 -1 -0 -1 -0 0 1 1 0 1 3 2 2 2 2 3 3 3 3 3 3 3 3 5 6 5 5 5 6 6 6 6 6 6 6
-4 -4 -4 -3 -3 -2 -1 -1 -0 0 0 0 0 1 1 1 1 1 1 2 3 3 3 3 2 3 3 4 4 5 6 5 5 5 5 6 6 6
-5 -5 -5 -4 -4 -4 -3 -2 -1 -0 -0 0 1 -0 0 0 1 1 1 1 1 2 2 3 3 4 6 5 3 4 5 4 4 5 5 5 6 6
-6 -6 -6 -5 -5 -4 -4 -4 -4 -3 -2 -1 -0 -0 -0 0 0 0 0 0 1 2 2 2 3 5 5 4 4 5 3 4 4 4 5 5 6 5
-6 -6 -6 -6 -5 -5 -5 -4 -4 -4 -4 -3 -2 -1 -1 -0 -0 -0 -0 1 0 1 1 2 3 2 1 4 4 5 4 3 3 4 4 4 5 5
-6 -6 -6 -6 -6 -6 -6 -5 -5 -5 -4 -4 -4 -3 -2 -1 -0 0 0 -0 0 -0 1 1 1 2 3 3 4 6 6 4 3 4 3 4 4 4
-7 -7 -7 -7 -7 -7 -7 -6 -5 -5 -5 -4 -4 -4 -4 -3 -2 -1 -0 0 0 0 -1 1 1 1 1 3 3 4 4 4 4 4 3 4 4 4
-7 -7 -7 -7 -7 -8 -7 -7 -6 -6 -5 -5 -5 -4 -5 -5 -4 -4 -2 -1 0 0 0 -0 0 -0 -0 2 4 3 4 4 4 4 4 4 4 3
-8 -8 -7 -8 -8 -8 -8 -8 -7 -7 -6 -6 -5 -5 -5 -5 -5 -5 -5 -4 -2 -0 -0 -2 -0 0 0 1 2 3 4 4 4 4 4 4 4 4
-8 -8 -8 -8 -7 -8 -8 -8 -8 -8 -7 -6 -6 -5 -5 -5 -5 -5 -5 -5 -4 -4 -4 -4 -2 -2 -1 -0 1 2 3 5 4 4 5 4 4 4
-8 -8 -8 -8 -8 -8 -8 -8 -9 -8 -8 -8 -7 -6 -6 -5 -5 -5 -5 -5 -5 -4 -5 -5 -5 -3 -3 -2 -1 -0 1 2 3 4 4 3 3 2
-9 -9 -8 -8 -8 -8 -9 -9 -9 -9 -9 -9 -9 -8 -7 -6 -6 -6 -6 -6 -5 -5 -5 -5 -5 -4 -4 -3 -2 -2 -2 -2 0 2 2 2 3 3
-9 -9 -9 -9 -9 -9 -10 -10 -10 -10 -10 -10 -10 -9 -9 -8 -7 -7 -6 -6 -6 -6 -5 -5 -5 -5 -5 -4 -4 -3 -2 -3 -3 -2 -0 0 2 3
-10 -10 -10 -10 -10 -11 -11 -11 -11 -11 -11 -11 -11 -10 -10 -10 -9 -8 -7 -7 -6 -6 -6 -6 -6 -7 -6 -4 -3 -4 -3 -3 -3 -2 -2 -1 -0 -0
-11 -11 -11 -11 -11 -12 -12 -11 -11 -12 -12 -12 -12 -11 -11 -10 -10 -9 -9 -8 -7 -7 -7 -7 -7 -7 -6 -6 -5 -4 -6 -4 -3 -2 -2 -2 -1 -0
-12 -12 -12 -12 -12 -12 -12 -13 -13 -13 -13 -13 -12 -12 -12 -11 -11 -10 -10 -9 -8 -8 -7 -7 -7 -7 -7 -6 -6 -5 -6 -6 -5 -5 -3 -2 -2 -1
-13 -13 -13 -13 -13 -13 -13 -14 -14 -14 -14 -13 -13 -13 -12 -12 -11 -11 -10 -10 -9 -9 -8 -8 -8 -8 -7 -7 -6 -6 -6 -6 -6 -6 -5 -5 -3 -2
-14 -13 -13 -14 -14 -14 -15 -15 -15 -15 -15 -14 -14 -13 -13 -12 -12 -12 -11 -11 -10 -10 -9 -9 -9 -8 -8 -7 -7 -6 -6 -7 -7 -6 -6 -6 -5 -4